User: anonymous   Login
Location: Mount Tamalpais State Park
(37.9108°N, 122.6128°W)
Time: 19:20:00
(UTC-07:00)
Language:

Cosmos 1814 Rocket - Orbit

View from above orbital plane
View from above orbital plane
View from above satellite
View from above satellite

Ground track
Ground track

The orbit data is extracted from the following two-line orbital elements,

1 17304U 87006B   15087.76416767  .00000272  00000-0  99085-4 0  9997
2 17304 074.0587 141.9511 0029895 186.5540 316.0727 14.37468156476707
Epoch (UTC): 28 March 2015 18:20:24
Eccentricity: 0.0029895
inclination: 74.0587°
perigee height: 745 km
apogee height: 788 km
right ascension of ascending node: 141.9511°
argument of perigee: 186.5540°
revolutions per day: 14.37468156
mean anomaly at epoch: 316.0727°
orbit number at epoch: 47670

The dashed part of the orbit path shows where the satellite is in the earth's shadow,  

DLR